Regional Weather Roundup
Issued by NWS

Home | Current Version | Previous Version | Text Only | Print | Product List | Glossary Off
Versions: 1 2 3 4 5 6 7 8 9 10 11 12 13 14 15 16 17 18 19 20 21 22 23 24 25 26 27 28 29 30 31 32 33 34 35 36 37 38 39 40 41 42 43 44 45 46 47 48 49 50

000
ASUS43 KOAX 230702
RWRNE

WEATHER ROUNDUP FOR NEBRASKA
NATIONAL WEATHER SERVICE OMAHA NE
200 AM CDT WED JUL 23 2014

NOTES: SATELLITE DATA IS BEING USED TO AUGMENT CLOUD COVER ABOVE
       12000 FEET.
       "FAIR" INDICATES FEW OR NO CLOUDS BELOW 12,000 FEET WITH NO
       SIGNIFICANT WEATHER AND/OR OBSTRUCTIONS TO VISIBILITY.

  * THESE STATIONS DO NOT REPORT WEATHER SUCH AS RAIN...SNOW OR FOG.

NEZ001>004-019>022-054>056-230800-
NEBRASKA PANHANDLE

CITY           SKY/WX    TMP DP  RH WIND       PRES   REMARKS
SCOTTSBLUFF    CLEAR     73  62  68 SE15      30.31R
ALLIANCE       PTCLDY    70  61  73 SE21G26   30.29F
CHADRON        CLEAR     70  63  78 E10       30.27F
KIMBALL        CLEAR     71  58  65 SE13      30.34R
SIDNEY         CLEAR     71  60  68 SE14G21   30.34R
$$

NEZ057>060-069>072-079>082-230800-
SOUTHWEST NEBRASKA

CITY           SKY/WX    TMP DP  RH WIND       PRES   REMARKS
NORTH PLATTE   MOCLDY    67  63  87 NE5       30.31R
IMPERIAL       CLEAR     72  64  76 E8        30.30S
LEXINGTON      PTCLDY    70  67  91 NE6       30.27S
MCCOOK         CLEAR     72  68  87 E13       30.26S
OGALLALA       PTCLDY    69  64  81 E13       30.32R
$$

NEZ005>010-023>029-035>040-094-230800-
NORTH CENTRAL NEBRASKA

CITY           SKY/WX    TMP DP  RH WIND       PRES   REMARKS
VALENTINE      CLOUDY    71  62  73 NE6       30.28F
AINSWORTH      CLOUDY    66  63  90 CALM      30.30F
BROKEN BOW     PTCLDY    66  63  90 N6        30.30R
O`NEILL        CLOUDY    66  60  79 N6        30.29R
ORD            PTCLDY    64  62  93 NW3       30.27R
THEDFORD       CLOUDY    69  64  82 CALM      30.33F
$$

NEZ041-046>049-061>064-073>077-083>087-230800-
SOUTH CENTRAL NEBRASKA

CITY           SKY/WX    TMP DP  RH WIND       PRES   REMARKS
GRAND ISLAND   CLEAR     68  65  90 NE5       30.25R
AURORA         CLEAR     69  69  98 NE6       30.24R
HASTINGS       CLEAR     69  64  84 N5        30.24R
HEBRON         PTCLDY    74  68  80 NE3       30.20S
HOLDREGE       PTCLDY    70  67  91 NE8       30.24F
KEARNEY *      CLEAR     68  64  88 N6        30.26S
YORK           CLEAR     68  68 100 NE7       30.23R
$$

NEZ011>018-030>034-042>045-230800-
NORTHEAST NEBRASKA

CITY           SKY/WX    TMP DP  RH WIND       PRES   REMARKS
NORFOLK        PTCLDY    69  59  70 NE8       30.24R
ALBION         PTCLDY    67  62  81 N3        30.26S
BLAIR          CLEAR     70  56  60 N9        30.20R
COLUMBUS *     PTCLDY    66  59  77 NE6       30.24R
FREMONT        PTCLDY    67  62  83 CALM      30.21R
TEKAMAH        CLEAR     66  62  87 N8        30.21R
WAYNE          CLEAR     63  60  91 CALM      30.26R
$$

NEZ050>053-065>068-078-088>093-230800-
SOUTHEAST NEBRASKA

CITY           SKY/WX    TMP DP  RH WIND       PRES   REMARKS
LINCOLN        CLEAR     71  65  81 N12       30.20R
OMAHA EPPLEY   PTCLDY    69  63  81 N7        30.19R
BEATRICE       CLEAR     67  66  95 CALM      30.18S
FALLS CITY     CLEAR     73  68  84 N5        30.14S
NEBRASKA CITY  CLEAR     70  65  84 NE7       30.17R
PLATTSMOUTH    CLEAR     70  64  82 N6        30.18S
$$

NEZ044-045-051>053-067-230800-
OMAHA AREA

CITY           SKY/WX    TMP DP  RH WIND       PRES   REMARKS
OMAHA EPPLEY   PTCLDY    69  63  81 N7        30.19R
BLAIR          CLEAR     70  56  60 N9        30.20R
FREMONT        PTCLDY    67  62  83 CALM      30.21R
MILLARD        CLEAR     74  63  68 N3        30.18F
OFFUTT AFB     CLEAR     72  64  75 NE6       30.18R
PLATTSMOUTH    CLEAR     70  64  82 N6        30.18S
WAHOO          FAIR      67  63  87 N6        30.20S
$$



USA.gov is the U.S. government's official web portal to all federal, state and local government web resources and services.